This demonstration page uses our WeatherBlox Daily Observations layout. Learn more.

Left ArrowRight Arrow

Hourly Observations for March 26, 2015

Temp ( °F °C ) Dew Point ( °F °C ) Humidity (%) Winds ( mph kmh ) Pressure ( in mb ) Visibility ( mi km ) Precip ( " mm )
12:16 am 00:16 Clear 41 5 N/A N/A N 9 15 30.06 1018 3 5 N/A
12:35 am 00:35 Clear 43 6 N/A N/A N 8 13 30.03 1017 4 6 N/A
12:56 am 00:56 Clear 43 6 N/A N/A N 8 13 30.00 1016 4 6 N/A
1:16 am 01:16 Clear 43 6 N/A N/A N 12 19 30.00 1016 4 6 N/A
1:35 am 01:35 Partly Cloudy 43 6 N/A N/A N 10 17 30.00 1016 5 8 N/A
1:56 am 01:56 Mostly Cloudy 43 6 N/A N/A NNW 10 17 30.00 1016 5 8 N/A
2:16 am 02:16 Mostly Cloudy 43 6 N/A N/A N 8 13 30.00 1016 5 8 N/A
2:35 am 02:35 Mostly Cloudy 43 6 N/A N/A NNW 9 15 30.03 1017 4 6 N/A
2:56 am 02:56 Cloudy 43 6 N/A N/A N N/A 30.03 1017 4 6 N/A
3:16 am 03:16 Cloudy 43 6 N/A N/A N N/A 30.03 1017 4 6 N/A
3:35 am 03:35 Cloudy 43 6 N/A N/A NNE 5 7 30.00 1016 3 4 N/A
3:56 am 03:56 Cloudy 43 6 N/A N/A N 12 19 29.97 1015 4 6 N/A
4:16 am 04:16 Cloudy 41 5 N/A N/A N 12 19 29.97 1015 5 8 N/A
4:35 am 04:35 Cloudy 41 5 N/A N/A N 14 22 29.94 1014 5 8 N/A
4:56 am 04:56 Cloudy 41 5 N/A N/A N 9 15 29.97 1015 5 8 N/A
5:16 am 05:16 Cloudy 39 4 N/A N/A N 9 15 29.94 1014 4 6 N/A
5:35 am 05:35 Cloudy 39 4 N/A N/A N 12 19 29.94 1014 4 6 N/A
5:56 am 05:56 Cloudy 39 4 N/A N/A N 9 15 29.94 1014 4 6 N/A
6:16 am 06:16 Cloudy 39 4 N/A N/A N 12 19 29.91 1013 4 6 N/A
6:35 am 06:35 Cloudy 39 4 N/A N/A N 10 17 29.91 1013 4 6 N/A
6:56 am 06:56 Cloudy 39 4 N/A N/A N 10 17 29.94 1014 4 6 N/A
7:16 am 07:16 Cloudy 39 4 N/A N/A N 9 15 29.94 1014 4 6 N/A
7:35 am 07:35 Cloudy 39 4 N/A N/A N 14 22 29.94 1014 5 8 N/A
7:56 am 07:56 Cloudy 37 3 N/A N/A N 13 20 29.94 1014 7 11 N/A
8:16 am 08:16 Cloudy 37 3 N/A N/A N 12 19 29.94 1014 7 11 N/A
8:36 am 08:36 Cloudy 37 3 N/A N/A N 10 17 29.94 1014 5 8 N/A
8:56 am 08:56 Cloudy 39 4 N/A N/A N 9 15 29.94 1014 4 6 N/A
9:15 am 09:15 Cloudy 39 4 N/A N/A N 10 17 29.94 1014 4 6 N/A
9:36 am 09:36 Cloudy 39 4 N/A N/A N 9 15 29.97 1015 4 6 N/A
9:56 am 09:56 Cloudy 39 4 N/A N/A N 9 15 29.97 1015 3 5 N/A
10:15 am 10:15 Cloudy 39 4 N/A N/A NNW 8 13 29.97 1015 3 5 N/A
10:36 am 10:36 Cloudy 39 4 N/A N/A N 8 13 29.97 1015 4 6 N/A
10:56 am 10:56 Cloudy 39 4 N/A N/A NNW 5 7 29.97 1015 4 6 N/A
11:15 am 11:15 Cloudy 39 4 N/A N/A NNW 8 13 29.97 1015 5 8 N/A
11:36 am 11:36 Cloudy 39 4 N/A N/A NNW 10 17 29.97 1015 7 11 N/A
11:56 am 11:56 Cloudy 37 3 N/A N/A NNW 13 20 29.97 1015 5 8 N/A
12:16 pm 12:16 Cloudy 37 3 N/A N/A NNW 13 20 29.97 1015 5 8 N/A
12:36 pm 12:36 Cloudy 39 4 N/A N/A NNW 10 17 29.97 1015 10 16 N/A
12:55 pm 12:55 Cloudy 37 3 37 3 100 100 NNW 12 19 29.97 1015 7 11 N/A
1:16 pm 13:16 Cloudy 39 4 39 4 100 100 NNW 12 19 29.97 1015 10 16 N/A
1:36 pm 13:36 Cloudy 39 4 32 undefined 75 75 NNW 13 20 29.97 1015 10 16 N/A
1:55 pm 13:55 Cloudy 39 4 28 -2 65 65 NNW 10 17 29.97 1015 10 16 N/A
2:16 pm 14:16 Mostly Cloudy 41 5 28 -2 61 61 NNW 10 17 29.94 1014 10 16 N/A
2:36 pm 14:36 Partly Cloudy 43 6 28 -2 57 57 NW 16 26 29.94 1014 10 16 N/A
2:55 pm 14:55 Partly Cloudy 41 5 28 -2 61 61 NW 12 19 29.94 1014 10 16 N/A
3:16 pm 15:16 Mostly Cloudy 43 6 27 -3 53 53 NW 13 20 29.94 1014 10 16 N/A
3:36 pm 15:36 Mostly Cloudy 41 5 27 -3 57 57 NW 12 19 29.97 1015 10 16 N/A
3:56 pm 15:56 Mostly Cloudy 43 6 25 -4 49 49 NNW 10 17 29.97 1015 10 16 N/A
4:15 pm 16:15 Mostly Cloudy 43 6 25 -4 49 49 NW 10 17 29.97 1015 10 16 N/A
4:36 pm 16:36 Partly Cloudy 43 6 25 -4 49 49 NW 12 19 29.97 1015 10 16 N/A
4:56 pm 16:56 Partly Cloudy 43 6 25 -4 49 49 NW 10 17 29.97 1015 10 16 N/A
5:15 pm 17:15 Mostly Cloudy 43 6 25 -4 49 49 NW 8 13 29.97 1015 10 16 N/A
5:36 pm 17:36 Mostly Cloudy 43 6 25 -4 49 49 NNW 13 20 29.97 1015 10 16 N/A
5:56 pm 17:56 Mostly Cloudy 43 6 25 -4 49 49 WNW 14 22 29.97 1015 10 16 N/A
6:15 pm 18:15 Mostly Cloudy 43 6 25 -4 49 49 NW 10 17 29.97 1015 10 16 N/A
6:36 pm 18:36 Mostly Cloudy 43 6 25 -4 49 49 NW 13 20 29.97 1015 10 16 N/A
6:56 pm 18:56 Mostly Cloudy 43 6 25 -4 49 49 WNW 10 17 29.97 1015 10 16 N/A
7:15 pm 19:15 Mostly Cloudy 41 5 23 -5 49 49 WNW 15 24 29.97 1015 10 16 N/A
7:36 pm 19:36 Partly Cloudy 41 5 21 -6 45 45 NW 12 19 30.00 1016 10 16 N/A
7:56 pm 19:56 Mostly Cloudy 41 5 23 -5 49 49 NW 6 9 30.00 1016 10 16 N/A
8:15 pm 20:15 Mostly Cloudy 39 4 23 -5 52 52 NW 6 9 30.00 1016 10 16 N/A
8:36 pm 20:36 Mostly Cloudy 39 4 25 -4 56 56 NW 6 9 30.00 1016 10 16 N/A
8:56 pm 20:56 Cloudy 39 4 25 -4 56 56 WNW 6 9 30.00 1016 10 16 N/A
9:15 pm 21:15 Partly Cloudy 37 3 23 -5 56 56 NW 6 9 30.00 1016 10 16 N/A
9:36 pm 21:36 Partly Cloudy 37 3 23 -5 56 56 NW 8 13 30.00 1016 10 16 N/A
9:56 pm 21:56 Clear 37 3 23 -5 56 56 NW 8 13 30.00 1016 10 16 N/A
10:15 pm 22:15 Clear 37 3 23 -5 56 56 NW 9 15 30.00 1016 10 16 N/A
10:36 pm 22:36 Clear 36 2 21 -6 56 56 NNW 9 15 30.06 1018 10 16 N/A
10:56 pm 22:56 Clear 36 2 21 -6 56 56 NNW 9 15 30.06 1018 10 16 N/A
11:16 pm 23:16 Clear 34 1 21 -6 60 60 N 6 9 30.06 1018 10 16 N/A
11:36 pm 23:36 Clear 32 undefined 23 -5 69 69 N 6 9 30.06 1018 10 16 N/A
11:55 pm 23:55 Mostly Cloudy 34 1 25 -4 70 70 N 7 11 30.06 1018 10 16 N/A

Powered by AerisWeather